Home > Weather > Cambridge > Past weeks

Flag for United Kingdom Weather for the Past 2 Weeks in Cambridge, England, United Kingdom

Now
50 °F

Mostly cloudy.


Feels Like: 45 °F
Forecast: 48 / 52 °F
Wind: 15 mph from Southwest

Location: Mildenhall Royal Air Force Base

Current Time: Feb 6, 2016 at 3:55:04 AM

Latest Report: Feb 6, 2016 at 2:58 AM


Visibility: N/A

Pressure: 29.70 "Hg

Humidity: 94%

Dew point: 48 °F

Location of CambridgeLocation

Historic Weather in Cambridge — Graph

°F

Cambridge Temperature Yesterday

Maximum temperature yesterday: 53 °F (at 12:58 PM)
Minimum temperature yesterday: 47 °F (at 3:58 AM)
Average temperature yesterday: 50 °F

High & Low Weather Summary for the Past Weeks

 TemperatureHumidityPressure
High58 °F (Jan 24, 2:58 PM)100% (Jan 22, 10:58 AM)30.42 "Hg (Jan 22, 10:58 AM)
Low35 °F (Jan 28, 6:58 AM)54% (Feb 2, 1:58 PM)29.58 "Hg (Jan 27, 1:58 PM)
Average48 °F88%29.98 "Hg
* Reported Jan 22 1:58 AM — Feb 6 1:58 AM, Cambridge, Weather by CustomWeather, © 2016

Note: Actual official high and low records may vary slightly from our data, if they occured in-between our weather recording intervals... More about our weather records

Advertising

Cambridge Weather History for the Previous 24 Hours

 ConditionsComfort  
Time TempWeatherWind HumidityBarometerVisibility
1:58 AM
Sat, Feb 6
49 °FMostly cloudy.15 mph94%29.71 "HgN/A
1:03 AM50 °FLight rain. Overcast.18 mph88%29.72 "HgN/A
11:58 PM
Fri, Feb 5
49 °FMostly cloudy.20 mph95%29.74 "HgN/A
11:03 PM48 °FMostly cloudy.16 mph100%29.74 "HgN/A
10:03 PM50 °FMostly cloudy.17 mph88%29.77 "HgN/A
9:03 PM50 °FMostly cloudy.18 mph88%29.79 "HgN/A
8:58 PM50 °FMostly cloudy.21 mph88%29.80 "HgN/A
7:58 PM49 °FOvercast.14 mph89%29.84 "HgN/A
6:58 PM50 °FMostly cloudy.15 mph81%29.86 "HgN/A
5:58 PM51 °FMostly cloudy.17 mph87%29.88 "HgN/A
4:58 PM51 °FOvercast.18 mph90%29.89 "HgN/A
3:58 PM51 °FOvercast.16 mph92%29.92 "HgN/A
2:58 PM52 °FMostly cloudy.16 mph87%29.94 "HgN/A
1:58 PM52 °FOvercast.20 mph87%29.97 "HgN/A
12:58 PM53 °FOvercast.16 mph83%30.00 "HgN/A
11:58 AM52 °FOvercast.12 mph87%30.03 "HgN/A
10:58 AM50 °FMostly cloudy.13 mph96%30.07 "HgN/A
9:58 AM50 °FMore clouds than sun.18 mph88%30.08 "HgN/A
8:58 AM49 °FOvercast.15 mph92%30.09 "HgN/A
7:58 AM49 °FOvercast.12 mph94%30.10 "HgN/A
6:58 AM48 °FOvercast.12 mph93%30.12 "HgN/A
5:58 AM48 °FOvercast.13 mph94%30.13 "HgN/A
4:58 AM48 °FOvercast.13 mph100%30.14 "HgN/A
3:58 AM47 °FClear.13 mph100%30.15 "HgN/A
Weather by CustomWeather, © 2016

See weather overviewHow to use our weather pages